sat.trackr.live / text

‹ back to catalog

STARLINK-33556

NORAD 62109 · 2024-220X

PAYLOAD ACTIVE UNKNOWN

§ Identity

Operator
Country
US
Launch date
2024-11-25
Launch site
AFETR
Launch vehicle
Mass (kg)
RCS (m²)

Purposes: comms

External: N2YO · Heavens-Above · Gunter

§ Orbital elements

Epoch: 2026-09-21T03:07:55.873056Z

Period
94.27 min
Inclination
42.9997°
Eccentricity
0.0001066
Mean motion
15.27591205 rev/d
Perigee alt
482.3 km
Apogee alt
483.7 km
Semi-major
6,861.2 km
B*
5.3168e-4
RAAN
181.5959°
Arg perigee
282.0465°
Mean anomaly
78.0267°
Rev number
10,310

§ Raw data

STARLINK-335561 62109U 24220X   26264.13050779  .00014402  00000+0  53168-3 0  99962 62109  42.9997 181.5959 0001066 282.0465  78.0267 15.27591205103100

JSON: /api/v1/satellites/62109 · /tle

For live sub-satellite position, see the globe view (requires WebGL).

§ Visibility from observer

Set your observer location to see the next 7 days of passes ≥ 10°. The values pass through the URL so the page stays shareable.

No JS? Fill the form by hand. The geolocation button needs JavaScript.